"SCET";"TARGET";"ELECTRON_DENSITY";"ERROR_FLAG";"ELECTRON_DENSITY_ERROR";"FREQ_FCE";"MEASURED_VALUE";"MEASURED_ITEM";"FREQ_PLASMA";"FREQ_UPPER_HYBRID";"FREQ_R_EQUALS_ZERO";"FREQ_L_EQUALS_ZERO";"ORBIT_NUMBER";"SATURN_RADIUS";"SATURN_IAU_LONGITUDE";"SATURN_SLS4_S_LONGITUDE";"SATURN_SLS4_N_LONGITUDE";"SATURN_SLS5_S_LONGITUDE";"SATURN_SLS5_N_LONGITUDE";"SATURN_LOCAL_TIME";"SATURN_KRONOGRAPHIC_LATITUDE";"SATURN_MAGNETIC_LATITUDE";"SATURN_L";"SATURN_L_OFFSET";"SATURN_SOLAR_EQUATORIAL_X";"SATURN_SOLAR_EQUATORIAL_Y";"SATURN_SOLAR_EQUATORIAL_Z";"SATURN_ALTITUDE";"ENCELADUS_ENCOUNTER_NUMBER";"ENCELADUS_RADIUS";"ENCELADUS_COROTATIONAL_X";"ENCELADUS_COROTATIONAL_Y";"ENCELADUS_COROTATIONAL_Z";"ENCELADUS_TRUE_ANOMALY";"ENCELADUS_PERIAPSIS_TIME";"JUPITER_RADIUS";"JUPITER_SYSTEMIII_LONGITUDE";"JUPITER_MAGNETIC_LATITUDE";"JUPITER_MAGNETIC_LOCAL_TIME";"JUPITER_L";"IO_PHASE";"EARTH_RADIUS";"EARTH_MAGNETIC_LATITUDE";"EARTH_LOCAL_TIME";"EARTH_L"
"[UTC]";"[0=Saturn, 1=Enceladus, 2=Jupiter, 3=Earth]";"[cm-3]";"[0=automated, 1=manual]";"[normalized density error]";"[Hz]";"[Hz]";"[0=upper hybrid frequency, 1=plasma frequency cutoff]";"[Hz]";"[Hz]";"[Hz]";"[Hz}";"[0, A, B, C, 3, 4, ... , 292, 293]";"[Rs where 1Rs=60268km]";"[degrees]";"[degrees]";"[degrees]";"[degrees]";"[degrees]";"[hours]";"[degrees]";"[degrees where offset=2293km north]";"[Rs where 1Rs=60268km]";"[Rs where 1Rs=60268km and offset=2293km north]";"[Rs where 1Rs=60268km]";"[Rs where 1Rs=60268km]";"[Rs where 1Rs=60268km]";"[km where ellipsoid a,b=60268km and c=54364km]";"[E0, E1, E2, ... , E21, E22]";"[Renc where 1Renc=252.1km]";"[Renc where 1Renc=252.1km]";"[Renc where 1Renc=252.1km]";"[Renc where 1Renc=252.1km]";"[degrees]";"[UTC]";"[Rj where 1Rj=71492km]";"[degrees]";"[degrees using JRM09 model]";"[hours using JRM09 model]";"[Rj where 1Rj=71492km]";"[degrees]";"[Re where 1Re=6378.1366km]";"[degrees]";"[hours]";"[Re where 1Re=6378.1366km]"
2017-04-26T08:37:24.010Z;0;2.3050e+00;0;     0.140;456059.938;  13632.635; 1;  13632.635; 456263.656; 456467.094;    407.146;271;   1.206;  48.881;;; 209.579;  61.760;  11.629;  33.010;  31.469;   1.715;   1.185;   1.007;  -0.098;   0.657;14323.342;;;;;;;;;;;;;;;;;
2017-04-26T08:37:32.010Z;0;1.9780e+00;0;     0.107;456059.938;  12630.794; 1;  12630.794; 456234.812; 456409.500;    349.548;271;   1.205;  48.834;;; 209.531;  61.713;  11.637;  32.855;  31.309;   1.707;   1.183;   1.008;  -0.096;   0.654;14220.127;;;;;;;;;;;;;;;;;
2017-04-26T08:37:40.009Z;0;2.0290e+00;0;     1.195;456059.938;  12792.502; 1;  12792.502; 456239.344; 456418.500;    358.548;271;   1.203;  48.787;;; 209.484;  61.666;  11.646;  32.700;  31.150;   1.699;   1.182;   1.008;  -0.094;   0.650;14117.205;;;;;;;;;;;;;;;;;
2017-04-26T08:37:48.009Z;0;2.4870e+00;0;     0.126;456059.938;  14162.972; 1;  14162.972; 456279.812; 456499.375;    439.409;271;   1.202;  48.740;;; 209.436;  61.619;  11.654;  32.544;  30.989;   1.691;   1.181;   1.009;  -0.092;   0.646;14014.553;;;;;;;;;;;;;;;;;
2017-04-26T08:38:04.009Z;0;4.3540e+00;0;     0.146;458453.031;  18737.057; 1;  18737.057; 458835.750; 459217.531;    764.512;271;   1.199;  48.646;;; 209.341;  61.526;  11.670;  32.231;  30.667;   1.676;   1.178;   1.010;  -0.087;   0.639;13810.104;;;;;;;;;;;;;;;;;
2017-04-26T08:38:12.009Z;0;5.0720e+00;0;     0.091;458453.031;  20223.230; 1;  20223.230; 458898.844; 459343.375;    890.356;271;   1.198;  48.600;;; 209.294;  61.480;  11.678;  32.074;  30.506;   1.668;   1.177;   1.011;  -0.085;   0.636;13708.314;;;;;;;;;;;;;;;;;
2017-04-26T08:38:20.009Z;0;5.0720e+00;0;     0.208;458453.031;  20223.230; 1;  20223.230; 458898.844; 459343.375;    890.356;271;   1.196;  48.554;;; 209.247;  61.433;  11.686;  31.916;  30.343;   1.660;   1.175;   1.012;  -0.083;   0.632;13606.816;;;;;;;;;;;;;;;;;
2017-04-26T08:38:28.009Z;0;4.4660e+00;0;     0.350;458453.031;  18976.941; 1;  18976.941; 458845.625; 459237.188;    784.179;271;   1.195;  48.507;;; 209.201;  61.388;  11.694;  31.758;  30.181;   1.652;   1.174;   1.013;  -0.081;   0.629;13505.612;;;;;;;;;;;;;;;;;
2017-04-26T08:38:36.009Z;0;3.2910e+00;0;     0.116;458453.031;  16290.255; 1;  16290.255; 458742.344; 459031.125;    578.114;271;   1.193;  48.461;;; 209.154;  61.342;  11.702;  31.599;  30.017;   1.645;   1.173;   1.013;  -0.079;   0.625;13404.705;;;;;;;;;;;;;;;;;
2017-04-26T08:39:08.009Z;0;3.0490e+00;0;     0.265;460316.375;  15680.261; 1;  15680.261; 460583.375; 460849.906;    533.516;271;   1.188;  48.278;;; 208.968;  61.160;  11.735;  30.959;  29.359;   1.615;   1.167;   1.016;  -0.071;   0.611;13004.099;;;;;;;;;;;;;;;;;
2017-04-26T08:39:16.009Z;0;2.4870e+00;0;     0.112;460316.375;  14162.972; 1;  14162.972; 460534.219; 460751.750;    435.353;271;   1.186;  48.233;;; 208.922;  61.115;  11.743;  30.798;  29.194;   1.608;   1.166;   1.017;  -0.069;   0.607;12904.715;;;;;;;;;;;;;;;;;
2017-04-26T08:39:24.009Z;0;2.9720e+00;0;     0.115;460316.375;  15482.049; 1;  15482.049; 460576.688; 460836.531;    520.128;271;   1.185;  48.188;;; 208.876;  61.071;  11.751;  30.636;  29.027;   1.600;   1.165;   1.017;  -0.066;   0.604;12805.643;;;;;;;;;;;;;;;;;
2017-04-26T08:39:40.009Z;0;3.6430e+00;0;     0.122;460316.375;  17140.652; 1;  17140.652; 460635.406; 460953.781;    637.378;271;   1.182;  48.097;;; 208.785;  60.982;  11.767;  30.311;  28.693;   1.586;   1.162;   1.019;  -0.062;   0.596;12608.446;;;;;;;;;;;;;;;;;
2017-04-26T08:39:48.009Z;0;4.2440e+00;0;     0.153;460316.375;  18500.203; 1;  18500.203; 460688.000; 461058.719;    742.330;271;   1.181;  48.052;;; 208.739;  60.938;  11.775;  30.148;  28.526;   1.579;   1.161;   1.019;  -0.060;   0.593;12510.326;;;;;;;;;;;;;;;;;
2017-04-26T08:39:56.009Z;0;4.3540e+00;0;     0.187;460316.375;  18737.057; 1;  18737.057; 460697.562; 461077.812;    761.427;271;   1.179;  48.007;;; 208.694;  60.893;  11.783;  29.984;  28.357;   1.572;   1.160;   1.020;  -0.058;   0.589;12412.528;;;;;;;;;;;;;;;;;
2017-04-26T08:40:04.009Z;0;4.4660e+00;0;     0.192;461651.031;  18976.941; 1;  18976.941; 462040.906; 462429.812;    778.765;271;   1.178;  47.963;;; 208.649;  60.849;  11.791;  29.820;  28.189;   1.565;   1.158;   1.020;  -0.056;   0.586;12315.057;;;;;;;;;;;;;;;;;
2017-04-26T08:40:12.009Z;0;3.6430e+00;0;     0.251;461651.031;  17140.652; 1;  17140.652; 461969.125; 462286.594;    635.541;271;   1.177;  47.918;;; 208.603;  60.803;  11.799;  29.655;  28.020;   1.558;   1.157;   1.021;  -0.054;   0.582;12217.912;;;;;;;;;;;;;;;;;
2017-04-26T08:40:28.008Z;0;5.0720e+00;0;     0.123;461651.031;  20223.230; 1;  20223.230; 462093.781; 462535.250;    884.212;271;   1.174;  47.829;;; 208.511;  60.711;  11.815;  29.324;  27.680;   1.544;   1.155;   1.022;  -0.050;   0.575;12024.630;;;;;;;;;;;;;;;;;
2017-04-26T08:40:36.008Z;0;5.4740e+00;0;     0.160;461651.031;  21009.955; 1;  21009.955; 462128.875; 462605.250;    954.201;271;   1.173;  47.785;;; 208.466;  60.666;  11.822;  29.158;  27.509;   1.537;   1.153;   1.023;  -0.048;   0.571;11928.484;;;;;;;;;;;;;;;;;
2017-04-26T08:40:44.008Z;0;5.2020e+00;0;     0.166;461651.031;  20482.143; 1;  20482.143; 462105.188; 462558.000;    906.953;271;   1.171;  47.741;;; 208.420;  60.620;  11.830;  28.991;  27.338;   1.531;   1.152;   1.023;  -0.045;   0.568;11832.679;;;;;;;;;;;;;;;;;
2017-04-26T08:40:52.008Z;0;4.9440e+00;0;     0.125;461651.031;  19967.592; 1;  19967.592; 462082.656; 462513.094;    862.040;271;   1.170;  47.697;;; 208.375;  60.575;  11.838;  28.824;  27.166;   1.524;   1.151;   1.024;  -0.043;   0.564;11737.213;;;;;;;;;;;;;;;;;
2017-04-26T08:41:00.008Z;0;5.0720e+00;0;     0.085;462452.094;  20223.230; 1;  20223.230; 462894.062; 463334.781;    882.686;271;   1.169;  47.653;;; 208.330;  60.530;  11.846;  28.656;  26.994;   1.517;   1.150;   1.025;  -0.041;   0.560;11642.093;;;;;;;;;;;;;;;;;
2017-04-26T08:41:24.008Z;0;7.0600e+00;0;     0.087;462452.094;  23860.182; 1;  23860.182; 463067.219; 463679.906;   1227.804;271;   1.165;  47.522;;; 208.195;  60.395;  11.870;  28.150;  26.475;   1.498;   1.146;   1.026;  -0.035;   0.549;11358.821;;;;;;;;;;;;;;;;;
2017-04-26T08:41:32.008Z;0;7.2420e+00;0;     0.100;462452.094;  24165.656; 1;  24165.656; 463083.062; 463711.469;   1259.358;271;   1.163;  47.478;;; 208.150;  60.350;  11.878;  27.981;  26.301;   1.492;   1.145;   1.027;  -0.033;   0.546;11265.104;;;;;;;;;;;;;;;;;
2017-04-26T08:41:40.008Z;0;6.2170e+00;0;     0.067;462452.094;  22389.760; 1;  22389.760; 462993.781; 463533.594;   1081.478;271;   1.162;  47.435;;; 208.106;  60.306;  11.886;  27.811;  26.126;   1.485;   1.144;   1.027;  -0.031;   0.542;11171.744;;;;;;;;;;;;;;;;;
2017-04-26T08:41:48.008Z;0;7.6200e+00;0;     0.123;462452.094;  24788.391; 1;  24788.391; 463115.969; 463777.000;   1324.913;271;   1.161;  47.391;;; 208.061;  60.261;  11.894;  27.640;  25.951;   1.479;   1.142;   1.028;  -0.029;   0.538;11078.746;;;;;;;;;;;;;;;;;
2017-04-26T08:42:04.008Z;0;8.0180e+00;0;     0.126;462745.281;  25427.172; 1;  25427.172; 463443.344; 464138.281;   1392.992;271;   1.158;  47.305;;; 207.973;  60.173;  11.909;  27.297;  25.600;   1.467;   1.140;   1.029;  -0.024;   0.531;10893.843;;;;;;;;;;;;;;;;;
2017-04-26T08:42:12.008Z;0;7.8160e+00;0;     0.083;462745.281;  25105.748; 1;  25105.748; 463425.812; 464103.375;   1358.099;271;   1.157;  47.262;;; 207.929;  60.129;  11.917;  27.125;  25.423;   1.460;   1.139;   1.029;  -0.022;   0.527;10801.943;;;;;;;;;;;;;;;;;
2017-04-26T08:42:20.008Z;0;6.2170e+00;0;     0.149;462745.281;  22389.760; 1;  22389.760; 463286.625; 463826.062;   1080.796;271;   1.156;  47.219;;; 207.885;  60.085;  11.925;  26.953;  25.246;   1.454;   1.138;   1.030;  -0.020;   0.524;10710.416;;;;;;;;;;;;;;;;;
2017-04-26T08:42:28.008Z;0;1.0080e+01;0;     0.093;462745.281;  28511.613; 1;  28511.613; 463622.812; 464495.375;   1750.097;271;   1.154;  47.177;;; 207.841;  60.041;  11.933;  26.780;  25.069;   1.448;   1.137;   1.030;  -0.018;   0.520;10619.265;;;;;;;;;;;;;;;;;
2017-04-26T08:42:36.008Z;0;1.0880e+01;0;     0.117;462745.281;  29620.773; 1;  29620.773; 463692.344; 464633.625;   1888.349;271;   1.153;  47.134;;; 207.797;  59.997;  11.941;  26.606;  24.891;   1.442;   1.135;   1.031;  -0.016;   0.516;10528.491;;;;;;;;;;;;;;;;;
2017-04-26T08:42:52.007Z;0;1.2670e+01;0;     0.161;462745.281;  31970.217; 1;  31970.217; 463848.344; 464943.594;   2198.320;271;   1.151;  47.049;;; 207.710;  59.910;  11.957;  26.258;  24.534;   1.431;   1.133;   1.032;  -0.012;   0.509;10348.101;;;;;;;;;;;;;;;;;
2017-04-26T08:43:00.007Z;0;1.4770e+01;0;     0.107;462546.562;  34506.008; 1;  34506.008; 463831.844; 465106.531;   2559.982;271;   1.149;  47.007;;; 207.666;  59.866;  11.964;  26.083;  24.355;   1.425;   1.132;   1.032;  -0.010;   0.505;10258.479;;;;;;;;;;;;;;;;;
2017-04-26T08:43:08.007Z;0;1.5540e+01;0;     0.080;462546.562;  35395.207; 1;  35395.207; 463898.844; 465239.406;   2692.852;271;   1.148;  46.964;;; 207.623;  59.823;  11.972;  25.907;  24.175;   1.419;   1.131;   1.033;  -0.007;   0.502;10169.246;;;;;;;;;;;;;;;;;
2017-04-26T08:43:16.007Z;0;2.0040e+01;0;     0.117;462546.562;  40196.949; 1;  40196.949; 464289.906; 466013.812;   3467.268;271;   1.147;  46.922;;; 207.580;  59.780;  11.980;  25.731;  23.995;   1.413;   1.130;   1.033;  -0.005;   0.498;10080.406;;;;;;;;;;;;;;;;;
2017-04-26T08:43:24.007Z;0;1.7640e+01;0;     0.164;462546.562;  37719.746; 1;  37719.746; 464081.969; 465602.344;   3055.782;271;   1.146;  46.880;;; 207.537;  59.737;  11.988;  25.555;  23.814;   1.408;   1.129;   1.034;  -0.003;   0.494; 9991.962;;;;;;;;;;;;;;;;;
2017-04-26T08:43:40.007Z;0;1.6770e+01;0;     0.120;462546.562;  36772.152; 1;  36772.152; 464005.938; 465451.656;   2905.116;271;   1.143;  46.796;;; 207.451;  59.651;  12.003;  25.201;  23.452;   1.396;   1.126;   1.034;   0.001;   0.487; 9816.274;;;;;;;;;;;;;;;;;
2017-04-26T08:43:48.007Z;0;2.0550e+01;0;     0.123;462546.562;  40711.578; 1;  40711.578; 464334.719; 466102.500;   3555.940;271;   1.142;  46.755;;; 207.408;  59.608;  12.011;  25.023;  23.269;   1.391;   1.125;   1.035;   0.003;   0.483; 9729.035;;;;;;;;;;;;;;;;;
2017-04-26T08:43:56.007Z;0;2.2760e+01;0;     0.104;462546.562;  42836.836; 1;  42836.836; 464525.875; 466480.250;   3933.702;271;   1.141;  46.713;;; 207.366;  59.566;  12.019;  24.845;  23.087;   1.385;   1.124;   1.035;   0.005;   0.479; 9642.205;;;;;;;;;;;;;;;;;
2017-04-26T08:44:04.007Z;0;2.5190e+01;0;     0.075;461878.656;  45073.039; 1;  45073.039; 464072.688; 466236.062;   4357.404;271;   1.140;  46.671;;; 207.323;  59.523;  12.027;  24.666;  22.904;   1.380;   1.123;   1.036;   0.007;   0.476; 9555.785;;;;;;;;;;;;;;;;;
2017-04-26T08:44:12.007Z;0;2.7190e+01;0;     0.086;461878.656;  46826.469; 1;  46826.469; 464246.281; 466578.219;   4699.572;271;   1.138;  46.630;;; 207.281;  59.481;  12.035;  24.487;  22.721;   1.375;   1.122;   1.036;   0.009;   0.472; 9469.779;;;;;;;;;;;;;;;;;
2017-04-26T08:44:28.007Z;0;3.0880e+01;0;     0.101;461878.656;  49901.746; 1;  49901.746; 464566.531; 467208.562;   5329.920;271;   1.136;  46.547;;; 207.196;  59.396;  12.050;  24.127;  22.352;   1.364;   1.120;   1.037;   0.014;   0.464; 9299.022;;;;;;;;;;;;;;;;;
2017-04-26T08:44:36.007Z;0;4.6400e+01;0;     0.078;461878.656;  61166.484; 1;  61166.484; 465911.188; 469841.625;   7962.979;271;   1.135;  46.506;;; 207.154;  59.354;  12.058;  23.946;  22.168;   1.359;   1.119;   1.037;   0.016;   0.461; 9214.276;;;;;;;;;;;;;;;;;
2017-04-26T08:44:44.007Z;0;4.4090e+01;0;     0.167;461878.656;  59629.859; 1;  59629.859; 465711.938; 469452.844;   7574.180;271;   1.134;  46.465;;; 207.112;  59.312;  12.066;  23.765;  21.982;   1.354;   1.118;   1.038;   0.018;   0.457; 9129.958;;;;;;;;;;;;;;;;;
2017-04-26T08:44:52.007Z;0;5.1370e+01;0;     0.079;461878.656;  64359.547; 1;  64359.547; 466341.125; 470679.031;   8800.374;271;   1.133;  46.424;;; 207.071;  59.271;  12.073;  23.584;  21.797;   1.349;   1.117;   1.038;   0.020;   0.453; 9046.068;;;;;;;;;;;;;;;;;
2017-04-26T08:45:00.007Z;0;5.6870e+01;0;     0.061;460802.938;  67719.297; 1;  67719.297; 465752.344; 470548.812;   9745.860;271;   1.132;  46.383;;; 207.029;  59.229;  12.081;  23.402;  21.611;   1.343;   1.116;   1.038;   0.022;   0.449; 8962.611;;;;;;;;;;;;;;;;;
2017-04-26T08:45:16.007Z;0;5.6870e+01;0;     0.090;460802.938;  67719.297; 1;  67719.297; 465752.344; 470548.812;   9745.860;271;   1.129;  46.301;;; 206.946;  59.146;  12.097;  23.036;  21.237;   1.333;   1.114;   1.039;   0.026;   0.442; 8797.007;;;;;;;;;;;;;;;;;
2017-04-26T08:45:24.007Z;0;5.5440e+01;0;     0.066;460802.938;  66863.258; 1;  66863.258; 465628.656; 470308.812;   9505.872;271;   1.128;  46.261;;; 206.904;  59.104;  12.104;  22.853;  21.050;   1.329;   1.113;   1.039;   0.028;   0.438; 8714.866;;;;;;;;;;;;;;;;;
2017-04-26T08:45:32.006Z;0;4.5230e+01;0;     0.162;460802.938;  60393.285; 1;  60393.285; 464743.688; 468586.656;   7783.723;271;   1.127;  46.220;;; 206.863;  59.063;  12.112;  22.669;  20.862;   1.324;   1.112;   1.040;   0.031;   0.434; 8633.182;;;;;;;;;;;;;;;;;
2017-04-26T08:45:40.006Z;0;5.1370e+01;0;     0.078;460802.938;  64359.547; 1;  64359.547; 465275.719; 469623.094;   8820.161;271;   1.126;  46.179;;; 206.822;  59.022;  12.120;  22.485;  20.673;   1.319;   1.111;   1.040;   0.033;   0.431; 8551.935;;;;;;;;;;;;;;;;;
2017-04-26T08:45:48.006Z;0;5.4050e+01;0;     0.112;460802.938;  66018.047; 1;  66018.047; 465508.031; 470074.625;   9271.682;271;   1.125;  46.139;;; 206.781;  58.981;  12.127;  22.300;  20.485;   1.314;   1.110;   1.040;   0.035;   0.427; 8471.139;;;;;;;;;;;;;;;;;
2017-04-26T08:46:04.006Z;0;8.5440e+01;0;     0.084;459381.250;  83006.141; 1;  83006.141; 466820.250; 473919.594;  14538.372;271;   1.123;  46.058;;; 206.700;  58.900;  12.143;  21.929;  20.106;   1.305;   1.108;   1.041;   0.039;   0.419; 8310.915;;;;;;;;;;;;;;;;;
2017-04-26T08:46:12.006Z;0;9.2220e+01;0;     0.094;459381.250;  86235.242; 1;  86235.242; 467405.219; 475035.875;  15654.643;271;   1.122;  46.018;;; 206.659;  58.859;  12.150;  21.743;  19.916;   1.300;   1.107;   1.041;   0.041;   0.415; 8231.493;;;;;;;;;;;;;;;;;
2017-04-26T08:46:20.006Z;0;7.1500e+01;0;     0.108;459381.250;  75933.984; 1;  75933.984; 465614.750; 471607.438;  12226.207;271;   1.121;  45.978;;; 206.618;  58.818;  12.158;  21.557;  19.725;   1.295;   1.106;   1.041;   0.043;   0.412; 8152.536;;;;;;;;;;;;;;;;;
2017-04-26T08:46:28.006Z;0;9.7030e+01;0;     0.098;459381.250;  88457.469; 1;  88457.469; 467820.312; 475825.750;  16444.516;271;   1.119;  45.938;;; 206.578;  58.778;  12.166;  21.370;  19.535;   1.291;   1.105;   1.042;   0.045;   0.408; 8074.046;;;;;;;;;;;;;;;;;
2017-04-26T08:46:36.006Z;0;1.1890e+02;0;     0.066;459381.250;  97933.984; 1;  97933.984; 469704.344; 479388.125;  20006.889;271;   1.118;  45.898;;; 206.538;  58.738;  12.173;  21.182;  19.343;   1.286;   1.104;   1.042;   0.047;   0.404; 7996.027;;;;;;;;;;;;;;;;;
2017-04-26T08:46:52.006Z;0;7.3340e+01;0;     0.063;459381.250;  76906.141; 1;  76906.141; 465774.281; 471914.344;  12533.110;271;   1.116;  45.818;;; 206.457;  58.657;  12.189;  20.806;  18.959;   1.277;   1.102;   1.042;   0.052;   0.396; 7841.415;;;;;;;;;;;;;;;;;
2017-04-26T08:47:00.006Z;0;1.5730e+02;0;     0.054;457663.625; 112643.695; 1; 112643.695; 471322.156; 483885.906;  26222.301;271;   1.115;  45.779;;; 206.417;  58.617;  12.196;  20.618;  18.767;   1.273;   1.101;   1.042;   0.054;   0.393; 7764.827;;;;;;;;;;;;;;;;;
2017-04-26T08:47:08.006Z;0;1.1890e+02;0;     0.080;457663.625;  97933.984; 1;  97933.984; 468024.625; 477739.531;  20075.930;271;   1.114;  45.739;;; 206.378;  58.578;  12.204;  20.428;  18.574;   1.269;   1.100;   1.043;   0.056;   0.389; 7688.724;;;;;;;;;;;;;;;;;
2017-04-26T08:47:16.006Z;0;1.6140e+02;0;     0.066;457663.625; 114085.844; 1; 114085.844; 471668.906; 484526.094;  26862.494;271;   1.113;  45.699;;; 206.338;  58.538;  12.212;  20.239;  18.381;   1.265;   1.100;   1.043;   0.058;   0.385; 7613.107;;;;;;;;;;;;;;;;;
2017-04-26T08:47:24.006Z;0;1.5730e+02;0;     0.063;457663.625; 112643.695; 1; 112643.695; 471322.156; 483885.906;  26222.301;271;   1.112;  45.660;;; 206.298;  58.498;  12.219;  20.049;  18.187;   1.260;   1.099;   1.043;   0.060;   0.381; 7537.981;;;;;;;;;;;;;;;;;
2017-04-26T08:47:40.006Z;0;1.8330e+02;0;     0.110;457663.625; 121578.297; 1; 121578.297; 473536.969; 487955.875;  30292.252;271;   1.110;  45.581;;; 206.219;  58.419;  12.235;  19.668;  17.798;   1.252;   1.097;   1.043;   0.064;   0.374; 7389.212;;;;;;;;;;;;;;;;;
2017-04-26T08:47:48.006Z;0;1.7870e+02;0;     0.097;457663.625; 120041.438; 1; 120041.438; 473144.719; 487238.344;  29574.738;271;   1.109;  45.542;;; 206.180;  58.380;  12.242;  19.476;  17.603;   1.248;   1.096;   1.044;   0.066;   0.370; 7315.576;;;;;;;;;;;;;;;;;
2017-04-26T08:47:56.006Z;0;1.9290e+02;0;     0.082;457663.625; 124711.297; 1; 124711.297; 474351.031; 489440.531;  31776.910;271;   1.108;  45.502;;; 206.141;  58.341;  12.250;  19.285;  17.408;   1.244;   1.095;   1.044;   0.068;   0.366; 7242.444;;;;;;;;;;;;;;;;;
2017-04-26T08:48:04.005Z;0;1.9780e+02;0;     0.063;455713.344; 126307.938; 1; 126307.938; 472893.594; 488379.906;  32666.566;271;   1.107;  45.463;;; 206.102;  58.302;  12.258;  19.093;  17.212;   1.240;   1.094;   1.044;   0.071;   0.362; 7169.827;;;;;;;;;;;;;;;;;
2017-04-26T08:48:12.005Z;0;1.6980e+02;0;     0.053;455713.344; 117025.758; 1; 117025.758; 470499.406; 484008.375;  28295.023;271;   1.106;  45.424;;; 206.063;  58.263;  12.265;  18.900;  17.016;   1.236;   1.093;   1.044;   0.073;   0.358; 7097.711;;;;;;;;;;;;;;;;;
2017-04-26T08:48:28.005Z;0;1.7420e+02;0;     0.066;455713.344; 118524.008; 1; 118524.008; 470874.281; 484696.312;  28982.973;271;   1.104;  45.346;;; 205.986;  58.186;  12.280;  18.514;  16.622;   1.228;   1.092;   1.044;   0.077;   0.351; 6955.021;;;;;;;;;;;;;;;;;
2017-04-26T08:48:36.005Z;0;1.8800e+02;0;     0.052;455713.344; 123134.828; 1; 123134.828; 472055.969; 486856.375;  31143.037;271;   1.103;  45.307;;; 205.947;  58.147;  12.288;  18.320;  16.425;   1.224;   1.091;   1.044;   0.079;   0.347; 6884.455;;;;;;;;;;;;;;;;;
2017-04-26T08:48:44.005Z;0;1.9780e+02;0;     0.073;455713.344; 126307.938; 1; 126307.938; 472893.594; 488379.906;  32666.566;271;   1.102;  45.268;;; 205.908;  58.108;  12.296;  18.126;  16.227;   1.221;   1.090;   1.045;   0.081;   0.343; 6814.411;;;;;;;;;;;;;;;;;
2017-04-26T08:48:52.005Z;0;1.9780e+02;0;     0.071;455713.344; 126307.938; 1; 126307.938; 472893.594; 488379.906;  32666.566;271;   1.101;  45.229;;; 205.870;  58.070;  12.303;  17.931;  16.029;   1.217;   1.089;   1.045;   0.083;   0.339; 6744.893;;;;;;;;;;;;;;;;;
2017-04-26T08:49:00.005Z;0;2.0290e+02;0;     0.069;453582.625; 127925.023; 1; 127925.023; 471276.969; 487173.938;  33591.312;271;   1.101;  45.190;;; 205.832;  58.032;  12.311;  17.736;  15.831;   1.213;   1.088;   1.045;   0.085;   0.335; 6675.905;;;;;;;;;;;;;;;;;
2017-04-26T08:49:16.005Z;0;1.8330e+02;0;     0.111;453582.625; 121578.297; 1; 121578.297; 469593.938; 484115.188;  30532.574;271;   1.099;  45.113;;; 205.756;  57.956;  12.326;  17.345;  15.433;   1.206;   1.087;   1.045;   0.089;   0.327; 6539.531;;;;;;;;;;;;;;;;;
2017-04-26T08:49:24.005Z;0;1.8330e+02;0;     0.075;453582.625; 121578.297; 1; 121578.297; 469593.938; 484115.188;  30532.574;271;   1.098;  45.074;;; 205.718;  57.918;  12.333;  17.149;  15.233;   1.202;   1.086;   1.045;   0.092;   0.324; 6472.151;;;;;;;;;;;;;;;;;
2017-04-26T08:49:32.005Z;0;2.0820e+02;0;     0.060;453582.625; 129562.812; 1; 129562.812; 471724.188; 487982.469;  34399.848;271;   1.097;  45.036;;; 205.680;  57.880;  12.341;  16.952;  15.033;   1.199;   1.085;   1.045;   0.094;   0.320; 6405.314;;;;;;;;;;;;;;;;;
2017-04-26T08:49:40.005Z;0;2.1900e+02;0;     0.055;453582.625; 132901.562; 1; 132901.562; 472652.094; 489654.625;  36072.008;271;   1.096;  44.997;;; 205.643;  57.843;  12.349;  16.755;  14.833;   1.195;   1.085;   1.045;   0.096;   0.316; 6339.022;;;;;;;;;;;;;;;;;
2017-04-26T08:49:48.005Z;0;1.9780e+02;0;     0.064;453582.625; 126307.938; 1; 126307.938; 470840.594; 486383.281;  32800.664;271;   1.095;  44.959;;; 205.605;  57.805;  12.356;  16.558;  14.632;   1.192;   1.084;   1.045;   0.098;   0.312; 6273.280;;;;;;;;;;;;;;;;;
2017-04-26T08:50:04.005Z;0;2.4250e+02;0;     0.151;451352.812; 139839.391; 1; 139839.391; 472519.219; 491166.312;  39813.512;271;   1.093;  44.882;;; 205.529;  57.729;  12.371;  16.162;  14.230;   1.185;   1.082;   1.045;   0.102;   0.304; 6143.457;;;;;;;;;;;;;;;;;
2017-04-26T08:50:12.005Z;0;2.8250e+02;0;     0.056;451352.812; 150931.094; 1; 150931.094; 475919.688; 497172.312;  45819.516;271;   1.092;  44.844;;; 205.489;  57.688;  12.379;  15.964;  14.028;   1.182;   1.082;   1.045;   0.104;   0.300; 6079.381;;;;;;;;;;;;;;;;;
2017-04-26T08:50:20.005Z;0;3.7370e+02;0;     0.069;451352.812; 173600.984; 1; 173600.984; 483587.281; 510399.312;  59046.516;271;   1.092;  44.805;;; 205.449;  57.648;  12.386;  15.765;  13.826;   1.179;   1.081;   1.045;   0.106;   0.296; 6015.868;;;;;;;;;;;;;;;;;
2017-04-26T08:50:28.005Z;0;2.7540e+02;0;     0.073;451352.812; 149023.188; 1; 149023.188; 475318.062; 496116.312;  44763.516;271;   1.091;  44.767;;; 205.410;  57.607;  12.394;  15.566;  13.623;   1.175;   1.080;   1.045;   0.108;   0.293; 5952.920;;;;;;;;;;;;;;;;;
2017-04-26T08:50:36.005Z;0;2.8250e+02;0;     0.065;451352.812; 150931.094; 1; 150931.094; 475919.688; 497172.312;  45819.516;271;   1.090;  44.729;;; 205.370;  57.567;  12.402;  15.366;  13.421;   1.172;   1.079;   1.045;   0.110;   0.289; 5890.541;;;;;;;;;;;;;;;;;
2017-04-26T08:50:52.004Z;0;2.7540e+02;0;     0.062;451352.812; 149023.188; 1; 149023.188; 475318.062; 496116.312;  44763.516;271;   1.088;  44.653;;; 205.291;  57.486;  12.417;  14.966;  13.014;   1.166;   1.078;   1.045;   0.115;   0.281; 5767.509;;;;;;;;;;;;;;;;;